[[{"header":{"parameterUnit":"m.s-1","parameterCategory":1,"la1":30.2991,"la2":30.254,"lo1":-89.0895,"lo2":-89.0444,"dy":0.0017,"dx":0.0017,"nx":28,"ny":28,"refTime":"2025-09-08T09:00:00:Z","depth":0,"parameterNumber":2,"parameterNumberName":"U-component_of_WINDS"},"data":[0,0,0,0,0,0,0,0,0,0,0,0,0,0,0,0,0,0,0,0,0,0,0,0,0,0,0,0,0,0,0,0,0,0,0,0,0,0,0,0,0,0,0,0,0,0,0,0,0,0,0,0,0,0,0,0,0,0,-5.2992,-5.2992,0,-5.2968,-5.2968,-5.2968,-5.2805,-5.2801,-5.2797,-5.2793,-5.2769,-5.2772,-5.2775,0,0,0,0,0,0,0,0,0,0,0,0,0,-5.2898,-5.2901,-5.2992,-5.2992,-5.2992,-5.2969,-5.2968,-5.2968,-5.2805,-5.2801,-5.2796,-5.2791,-5.2768,-5.2772,-5.2776,0,0,0,0,0,0,0,0,0,0,0,0,0,-5.2913,-5.2901,-5.2992,-5.2908,-5.29,-5.2969,-5.2968,-5.2968,-5.2807,-5.2801,-5.2795,-5.2789,-5.2767,-5.2771,-5.2776,-5.2924,0,0,-5.279,-5.2792,0,0,0,0,0,0,0,0,-5.2913,-5.2917,-5.2921,-5.2914,-5.2905,-5.2883,-5.2926,-5.2953,-5.2808,-5.2842,-5.2793,-5.2786,-5.2812,-5.2813,-5.2821,-5.2923,-5.2922,-5.2791,-5.2793,-5.2795,-5.2797,0,0,0,0,0,0,0,-5.2912,-5.2917,-5.2983,-5.2921,-5.2912,-5.2871,-5.2867,-5.293,-5.2861,-5.2839,-5.2827,-5.2826,-5.2807,-5.2817,-5.2819,-5.2921,-5.279,-5.2794,-5.2797,-5.2799,-5.3143,-5.3149,0,0,0,0,0,0,-5.2922,-5.2917,-5.2984,-5.2982,-5.2894,-5.2878,-5.2873,-5.2897,-5.286,-5.2848,-5.2831,-5.2819,-5.2812,-5.2814,-5.2818,-5.2987,-5.2795,-5.28,-5.2802,-5.3136,-5.3144,-5.3151,0,0,0,0,0,0,-5.2921,-5.293,-5.2984,-5.2946,-5.295,-5.2886,-5.2914,-5.2899,-5.2909,-5.2854,-5.2841,-5.2855,-5.2808,-5.2812,-5.2899,-5.2984,-5.2802,-5.2806,-5.3129,-5.3139,-5.3147,-5.3329,0,0,0,0,0,0,-5.2919,-5.293,-5.2986,-5.2949,-5.2953,-5.3066,-5.2919,-5.2903,-5.2918,-5.2901,-5.2873,-5.2862,-5.2803,-5.2893,-5.2903,-5.2987,-5.2809,-5.3121,-5.3133,-5.3144,-5.3315,-5.3343,-5.3368,0,0,0,0,0,-5.2916,-5.3038,-5.2989,-5.2998,-5.3021,-5.3071,-5.3073,-5.3003,-5.2925,-5.298,-5.2945,-5.2863,-5.2974,-5.2903,-5.2913,-5.3,-5.3115,-5.313,-5.3144,-5.3303,-5.3338,-5.3367,0,0,0,0,0,0,-5.3086,-5.3031,-5.2977,-5.309,-5.3087,-5.3043,-5.311,-5.3042,-5.306,-5.3044,-5.2956,-5.2951,-5.3051,-5.3035,-5.2956,-5.3141,-5.303,-5.3048,-5.3148,-5.3181,-5.3207,-5.3207,-5.2813,0,0,0,0,0,-5.3137,-5.3182,-5.3132,-5.3237,-5.3238,-5.3175,-5.3194,-5.3141,-5.3133,-5.3131,-5.3102,-5.3098,-5.3131,-5.3156,-5.3184,-5.3313,-5.3304,-5.3378,-5.3404,-5.3426,-5.3441,-5.3508,-5.354,-5.3198,-5.3198,-5.3198,0,0,-5.3241,-5.3217,-5.3251,-5.327,-5.3261,-5.331,-5.3175,-5.3232,-5.3267,-5.3139,-5.3219,-5.3199,-5.3188,-5.3297,-5.3343,-5.3286,-5.3534,-5.3445,-5.3463,-5.3465,-5.3526,-5.3558,-5.3587,-5.3208,-5.3206,-5.3204,0,0,-5.3456,-5.3444,-5.3529,-5.3523,-5.3511,-5.3468,-5.349,-5.3457,-5.3438,-5.3517,-5.3422,-5.3464,-5.3524,-5.352,-5.3527,-5.3744,-5.3668,-5.3756,-5.3893,-5.3958,-5.3985,-5.4009,-5.4084,-5.4113,-5.3771,-5.3772,-5.3772,0,-5.3588,-5.3657,-5.3581,-5.3645,-5.3656,-5.3544,-5.3629,-5.3627,-5.3626,-5.3636,-5.3572,-5.3646,-5.3631,-5.3737,-5.379,-5.38,-5.382,-5.3757,-5.3988,-5.401,-5.4031,-5.4102,-5.4131,-5.3782,-5.3781,-5.378,-5.3779,0,-5.3819,-5.3869,-5.3939,-5.394,-5.3959,-5.4034,-5.397,-5.3999,-5.3945,-5.3909,-5.3991,-5.3971,-5.3992,-5.4014,-5.3962,-5.4113,-5.4078,-5.4003,-5.3889,-5.4075,-5.414,-5.4167,-5.3797,-5.3793,-5.379,-5.3788,0,0,-5.4137,-5.4096,-5.4123,-5.4122,-5.4102,-5.4139,-5.4209,-5.423,-5.4256,-5.426,-5.4316,-5.4371,-5.4301,-5.4308,-5.4255,-5.4313,-5.4485,-5.423,-5.4229,-5.4277,-5.4649,-5.4704,-5.4736,-5.4436,-5.4441,-5.4445,-5.4649,0,-5.4342,-5.4458,-5.4393,-5.4518,-5.4563,-5.4458,-5.4519,-5.4513,-5.4483,-5.4517,-5.4484,-5.4523,-5.4429,-5.4433,-5.4486,-5.4453,-5.4558,-5.4437,-5.4486,-5.4489,-5.4489,-5.4771,-5.4829,-5.5022,-5.4674,-5.4678,-5.4682,0,-5.4595,-5.4609,-5.474,-5.4711,-5.4727,-5.4783,-5.4797,-5.4831,-5.4823,-5.4797,-5.4807,-5.474,-5.4807,-5.4697,-5.4788,-5.4708,-5.4724,-5.4712,-5.4717,-5.4717,-5.4595,-5.4776,-5.5082,-5.511,-5.4721,-5.4718,-5.4715,0,-5.4812,-5.4864,-5.4948,-5.4951,-5.492,-5.4962,-5.4951,-5.4937,-5.4954,-5.4968,-5.4978,-5.4999,-5.5011,-5.5029,-5.497,-5.4896,-5.5069,-5.4954,-5.5048,-5.505,-5.5086,-5.5084,-5.5397,-5.5103,-5.5102,-5.5102,-5.5101,0,-5.5046,-5.5129,-5.5045,-5.5096,-5.5187,-5.5112,-5.5204,-5.5181,-5.5171,-5.5216,-5.5128,-5.5173,-5.5093,-5.5131,-5.5085,-5.5167,-5.5173,-5.5154,-5.514,-5.516,-5.5162,-5.5167,-5.5152,-5.5109,-5.5107,-5.5106,-5.5105,0,-5.5301,-5.5249,-5.5333,-5.5298,-5.5291,-5.5359,-5.5328,-5.5375,-5.534,-5.5399,-5.5408,-5.5353,-5.5392,-5.5336,-5.537,-5.5339,-5.5451,-5.5418,-5.5453,-5.5443,-5.5539,-5.553,-5.5864,-5.5904,-5.5586,-5.559,-5.5592,0,-5.5452,-5.5514,-5.5485,-5.5509,-5.5504,-5.5544,-5.5561,-5.5491,-5.5513,-5.5509,-5.5556,-5.5588,-5.5609,-5.5678,-5.5641,-5.5666,-5.5632,-5.5747,-5.5635,-5.5653,-5.5631,-5.5627,-5.5632,-5.5769,-5.5773,-5.5776,-5.5779,0,-5.5726,-5.5697,-5.5725,-5.5745,-5.5768,-5.578,-5.5786,-5.5811,-5.5737,-5.5766,-5.5805,-5.5822,-5.5856,-5.5889,-5.5905,-5.5894,-5.5825,-5.5815,-5.5838,-5.5857,-5.5874,-5.5865,-5.5513,-5.5807,-5.5804,-5.5802,-5.5801,-5.5799,-5.5931,-5.5981,-5.5969,-5.6003,-5.6001,-5.6008,-5.605,-5.6021,-5.6052,-5.6074,-5.6031,-5.6081,-5.6073,-5.6087,-5.6084,-5.6122,-5.6072,-5.6105,-5.6113,-5.6122,-5.6136,-5.5871,-5.6126,-5.6125,-5.6124,-5.6123,-5.6122,0,-5.6198,-5.6186,-5.6218,-5.6229,-5.6257,-5.619,-5.6193,-5.6221,-5.6265,-5.6264,-5.6287,-5.6332,-5.6364,-5.6331,-5.6356,-5.6393,-5.6362,-5.6402,-5.6397,-5.6396,-5.6181,-5.6157,-5.6427,-5.6427,-5.6427,-5.6427,-5.6427,-5.6427,-5.634,-5.642,-5.6391,-5.6469,-5.6455,-5.6503,-5.6511,-5.6518,-5.6516,-5.657,-5.6596,-5.6574,-5.656,-5.6584,-5.6611,-5.66,-5.6613,-5.6664,-5.6642,-5.6441,-5.6411,-5.6383,-5.636,-5.6668,-5.6668,-5.6854,-5.6855,-5.6857]},{"header":{"parameterUnit":"m.s-1","parameterCategory":1,"la1":30.2991,"la2":30.254,"lo1":-89.0895,"lo2":-89.0444,"dy":0.0017,"dx":0.0017,"nx":28,"ny":28,"refTime":"2025-09-08T09:00:00:Z","depth":0,"parameterNumber":3,"parameterNumberName":"V-component_of_WINDS"},"data":[0,0,0,0,0,0,0,0,0,0,0,0,0,0,0,0,0,0,0,0,0,0,0,0,0,0,0,0,0,0,0,0,0,0,0,0,0,0,0,0,0,0,0,0,0,0,0,0,0,0,0,0,0,0,0,0,0,0,0.947,0.9469,0,0.9381,0.938,0.9379,0.9339,0.934,0.934,0.934,0.9243,0.924,0.9237,0,0,0,0,0,0,0,0,0,0,0,0,0,0.9602,0.9599,0.947,0.9469,0.9468,0.9382,0.938,0.9379,0.9339,0.934,0.934,0.934,0.9244,0.924,0.9237,0,0,0,0,0,0,0,0,0,0,0,0,0,0.9532,0.9599,0.9471,0.9438,0.9434,0.9382,0.938,0.9379,0.9339,0.934,0.934,0.934,0.9245,0.9241,0.9237,0.9208,0,0,0.9224,0.9223,0,0,0,0,0,0,0,0,0.9536,0.9527,0.9444,0.944,0.9436,0.9372,0.9391,0.9321,0.9339,0.9375,0.934,0.934,0.9285,0.9278,0.926,0.9203,0.9199,0.9224,0.9221,0.922,0.9219,0,0,0,0,0,0,0,0.9541,0.953,0.9435,0.9443,0.9438,0.9427,0.9417,0.9377,0.933,0.9372,0.9369,0.9359,0.9283,0.9264,0.9258,0.9198,0.9224,0.922,0.9218,0.9216,0.9113,0.9113,0,0,0,0,0,0,0.9551,0.9535,0.9438,0.9432,0.9488,0.9424,0.9413,0.9392,0.933,0.9321,0.9359,0.9358,0.9271,0.9263,0.9254,0.9217,0.922,0.9216,0.9214,0.9113,0.9113,0.9112,0,0,0,0,0,0,0.9554,0.9543,0.9441,0.9483,0.9469,0.9422,0.9398,0.939,0.9372,0.9321,0.9312,0.935,0.9271,0.926,0.922,0.9213,0.9214,0.921,0.9114,0.9113,0.9113,0.9141,0,0,0,0,0,0,0.9558,0.9545,0.9534,0.9483,0.9467,0.941,0.9398,0.9388,0.9366,0.9363,0.9309,0.93,0.927,0.9227,0.9216,0.9207,0.9207,0.9114,0.9113,0.9113,0.9141,0.9142,0.9143,0,0,0,0,0,0.9563,0.9544,0.9534,0.9522,0.9453,0.941,0.9401,0.9368,0.9365,0.9354,0.9321,0.9302,0.9216,0.9223,0.9211,0.92,0.9114,0.9113,0.9113,0.914,0.9142,0.9143,0,0,0,0,0,0,0.9593,0.9537,0.9525,0.9489,0.9455,0.9404,0.9388,0.9371,0.9335,0.9334,0.9293,0.9282,0.9245,0.9219,0.9228,0.917,0.9163,0.916,0.9188,0.9189,0.919,0.9197,0.9204,0,0,0,0,0,0.9596,0.9568,0.9519,0.9492,0.9476,0.9435,0.9415,0.9394,0.9356,0.934,0.9305,0.9267,0.9232,0.9209,0.9173,0.9137,0.9125,0.9124,0.9125,0.9126,0.9124,0.9103,0.9102,0.911,0.911,0.911,0,0,0.9601,0.9566,0.955,0.9497,0.9468,0.9438,0.9423,0.9391,0.9368,0.9335,0.9296,0.9269,0.9224,0.9186,0.9168,0.9163,0.9119,0.9125,0.9127,0.9123,0.9102,0.9101,0.9101,0.911,0.911,0.911,0,0,0.9594,0.9566,0.954,0.9513,0.947,0.9443,0.9437,0.9389,0.937,0.9331,0.9306,0.9277,0.9216,0.9186,0.9163,0.9147,0.9128,0.9136,0.9141,0.9121,0.912,0.912,0.9114,0.9112,0.9134,0.9134,0.9134,0,0.9604,0.956,0.9529,0.95,0.9477,0.9448,0.9422,0.9395,0.9342,0.9327,0.9323,0.9248,0.9215,0.917,0.9167,0.9149,0.914,0.9141,0.9123,0.9122,0.9121,0.9115,0.9113,0.9135,0.9135,0.9135,0.9135,0,0.9575,0.9545,0.9529,0.9482,0.9457,0.9429,0.9393,0.9372,0.9353,0.9326,0.9286,0.9247,0.9204,0.9192,0.9172,0.9144,0.9142,0.9132,0.9124,0.9122,0.9116,0.9113,0.9137,0.9137,0.9136,0.9136,0,0,0.9583,0.9521,0.9515,0.9494,0.9446,0.9421,0.9391,0.9351,0.9334,0.9298,0.9272,0.9223,0.9213,0.9187,0.9163,0.9146,0.9136,0.9137,0.9136,0.9138,0.9103,0.9111,0.9109,0.9124,0.9123,0.9123,0.9107,0,0.9569,0.9518,0.949,0.9449,0.942,0.9394,0.9368,0.9335,0.931,0.9281,0.9252,0.9218,0.9208,0.9192,0.9174,0.9141,0.9128,0.9142,0.9098,0.9097,0.9109,0.9105,0.9113,0.91,0.9104,0.9103,0.9103,0,0.9545,0.9514,0.9471,0.9428,0.9415,0.9393,0.9354,0.9327,0.9289,0.9272,0.9244,0.9221,0.9188,0.9185,0.9138,0.9148,0.9128,0.911,0.9109,0.9102,0.9099,0.9098,0.9094,0.9092,0.9099,0.9099,0.9099,0,0.9555,0.9501,0.9469,0.9452,0.94,0.9386,0.9363,0.9326,0.9304,0.9269,0.9254,0.9216,0.9195,0.9165,0.9132,0.9133,0.9089,0.9082,0.9073,0.9073,0.9063,0.9064,0.9056,0.9052,0.9052,0.9052,0.9052,0,0.9542,0.9517,0.9473,0.9453,0.9425,0.9393,0.9364,0.9339,0.9307,0.928,0.9254,0.923,0.9189,0.9159,0.9133,0.9098,0.9089,0.9073,0.9066,0.9075,0.9077,0.906,0.906,0.9052,0.9052,0.9052,0.9052,0,0.9547,0.9517,0.948,0.9436,0.9424,0.9405,0.9366,0.9345,0.9319,0.9287,0.9277,0.9236,0.92,0.9165,0.9115,0.9098,0.9063,0.9055,0.9077,0.9073,0.9065,0.9066,0.9045,0.904,0.9041,0.9041,0.9041,0,0.954,0.9521,0.9475,0.9457,0.9436,0.9407,0.9385,0.9353,0.9331,0.9288,0.9272,0.9234,0.9202,0.9146,0.911,0.9072,0.9062,0.9058,0.9056,0.9066,0.9061,0.9063,0.9061,0.9058,0.9058,0.9058,0.9058,0,0.9532,0.9518,0.9489,0.9455,0.9431,0.9402,0.9371,0.9358,0.9319,0.9296,0.926,0.9236,0.9187,0.915,0.9108,0.9083,0.9064,0.906,0.9055,0.9063,0.9077,0.9069,0.9079,0.906,0.9059,0.9059,0.9059,0.9059,0.953,0.9512,0.9478,0.9446,0.9421,0.9394,0.9372,0.9346,0.9316,0.9275,0.9258,0.9221,0.9184,0.9127,0.9103,0.9073,0.9068,0.9062,0.906,0.9059,0.906,0.9083,0.9065,0.9065,0.9065,0.9065,0.9065,0,0.9519,0.9497,0.9468,0.9429,0.9404,0.9391,0.9358,0.9337,0.9306,0.9274,0.9245,0.9204,0.9168,0.9131,0.9093,0.9076,0.9066,0.9067,0.9067,0.9062,0.9067,0.9075,0.9075,0.9075,0.9075,0.9075,0.9075,0.9075,0.9511,0.948,0.9463,0.9419,0.9396,0.9362,0.9344,0.9318,0.9293,0.9249,0.922,0.9198,0.9163,0.9123,0.9089,0.9079,0.9066,0.9069,0.9057,0.9062,0.9061,0.9061,0.9067,0.9067,0.9067,0.9053,0.9053,0.9053]}]]